Temperature
21 22 21 21 20 20 20 19 19 19 19 19 19 19 19 19 19 19 19 19 18 18 18 18 18 18 18 18 18 18 18 18 18 18 18 18 17 17 17 17 17 17 17
22 22 21 21 20 20 20 19 19 19 19 19 19 19 19 19 18 18 18 18 18 18 18 18 18 18 18 18 18 18 18 18 18 18 18 18 17 17 17 17 17 17 17
22 22 21 21 20 20 20 19 19 19 19 19 19 19 19 18 18 18 18 18 18 18 18 18 18 18 18 18 18 18 18 18 18 17 17 17 17 17 17 17 17 17 17
22 22 21 21 20 20 20 19 19 19 19 19 19 19 18 18 18 18 18 18 18 18 18 18 18 18 18 18 18 18 18 18 17 17 17 17 17 17 17 17 17 17 17
21 21 22 21 20 20 20 19 19 19 19 19 19 19 18 18 18 18 18 18 18 18 18 18 18 18 18 18 18 18 18 17 17 17 17 17 17 17 17 17 17 17 17
21 22 22 21 20 20 20 19 19 19 19 19 19 18 18 18 18 18 18 18 18 18 18 18 18 18 18 18 18 18 17 17 17 17 17 17 17 17 17 17 17 17 17
21 21 22 21 21 20 20 19 19 19 19 19 18 18 18 18 18 18 18 18 18 18 18 18 18 18 18 18 18 18 17 17 17 17 17 17 17 17 17 17 17 17 17
21 21 22 21 21 20 20 19 19 19 19 19 18 18 18 18 18 18 18 18 18 18 18 18 18 18 18 18 18 18 18 17 17 17 17 17 17 17 17 17 17 17 17
21 21 22 21 20 20 20 19 19 19 19 19 18 18 18 18 18 18 18 18 18 18 18 18 18 18 18 18 18 18 18 18 17 17 17 18 17 17 17 17 17 17 17
22 21 21 21 20 20 20 19 19 19 19 19 18 18 18 18 18 18 18 18 18 18 18 18 18 18 18 18 18 18 18 18 18 17 18 18 17 17 17 17 17 17 17
22 21 20 20 20 19 19 19 19 19 19 19 19 19 18 18 18 18 18 18 18 18 18 18 18 18 18 18 18 18 18 18 18 17 18 18 18 17 17 17 17 17 17
22 21 21 20 19 19 18 19 19 19 19 18 18 18 18 18 18 18 18 18 18 18 18 18 18 18 18 18 18 18 18 18 18 18 18 18 18 18 17 17 17 17 17
22 21 21 20 20 19 19 19 18 18 19 18 18 18 18 18 18 18 18 18 18 18 18 18 18 17 17 17 18 18 18 18 18 18 18 18 18 18 17 17 17 17 17
22 21 21 20 20 20 19 19 19 18 19 18 18 18 18 18 18 18 18 18 18 18 18 18 17 17 17 18 18 18 18 18 18 18 18 18 18 18 17 17 17 17 17
22 21 21 20 20 20 19 19 19 19 19 19 18 18 18 18 18 18 18 18 18 18 18 18 17 17 17 18 18 18 18 18 18 18 18 18 18 18 17 17 17 17 17
22 21 20 20 20 20 19 19 19 19 19 19 18 18 18 18 18 18 18 18 18 18 18 18 18 18 18 18 18 18 18 18 18 17 18 18 18 17 17 17 17 17 17
21 21 20 20 19 19 19 19 19 19 19 19 18 18 18 18 18 18 18 18 18 18 18 18 18 18 18 18 18 18 17 17 17 17 17 17 17 17 17 17 17 17 17
21 20 20 19 19 19 19 19 19 19 19 19 18 18 18 18 18 18 18 18 18 18 18 18 18 18 18 18 18 18 18 17 17 17 17 17 17 17 17 17 17 17 17
21 20 20 19 19 19 18 19 19 19 19 19 18 18 18 18 18 18 18 18 18 18 18 18 18 18 18 18 18 18 18 18 17 17 17 17 17 17 17 17 17 17 17
20 20 20 19 19 18 18 18 18 19 19 18 18 18 18 18 18 18 18 18 18 18 18 18 18 18 18 18 18 18 18 18 18 17 17 17 17 17 17 17 17 17 17
20 19 19 19 19 18 18 18 18 18 18 18 18 18 18 18 18 18 18 18 18 18 18 18 18 18 18 18 18 18 18 18 18 18 18 17 17 17 17 17 17 17 17
20 19 19 19 19 19 18 18 18 18 18 18 18 18 18 18 18 18 18 18 18 18 18 18 18 18 18 18 18 18 18 18 18 18 18 18 18 17 17 17 17 17 17
20 19 19 19 19 19 18 18 18 18 18 18 18 18 18 18 18 18 18 18 18 18 18 18 18 18 18 18 18 18 18 18 18 18 18 18 18 18 17 17 17 17 17
20 19 19 19 19 19 18 18 18 18 18 18 18 18 18 18 18 18 18 18 18 18 18 18 18 18 18 18 18 18 18 18 18 18 18 18 18 18 18 18 17 17 17
20 19 19 19 19 19 18 18 18 18 18 18 18 18 18 18 18 18 18 18 18 18 18 18 18 18 18 18 18 18 18 18 18 18 18 18 18 18 18 18 18 17 17
20 19 19 19 18 18 18 18 18 18 18 18 18 18 18 18 18 18 18 18 18 18 18 18 17 17 17 17 18 18 18 18 18 18 18 18 18 18 18 18 18 17 17
Wind_Speed
17 18 18 17 16 15 15 15 14 14 14 14 14 14 14 14 13 13 13 13 13 12 12 12 12 12 12 13 14 14 15 15 16 17 17 17 16 14 14 16 17 16 17
21 20 19 18 17 16 16 15 15 15 14 14 13 13 13 13 12 12 12 12 12 12 12 12 12 12 13 13 13 13 13 14 15 16 17 16 15 14 14 15 17 15 17
21 20 19 18 18 17 16 15 15 15 15 14 13 13 12 12 12 12 12 12 13 13 12 12 12 13 13 13 12 12 12 12 13 14 15 15 14 15 16 17 18 17 16
21 20 19 19 18 17 17 16 15 15 14 14 13 12 12 12 12 12 12 13 13 13 13 13 13 13 13 12 11 10 10 10 11 11 11 14 14 16 17 17 17 16 16
20 20 21 20 18 17 17 16 15 15 14 13 13 12 12 12 12 13 13 13 13 13 14 14 14 13 13 12 10 9 8 7 7 9 14 15 15 15 16 16 16 16 15
21 21 21 20 19 18 17 16 15 15 14 13 12 12 12 12 13 13 13 13 14 14 14 14 14 13 12 10 9 7 5 4 5 11 15 16 15 15 15 15 15 15 15
21 21 21 20 19 17 16 16 15 14 14 13 12 12 12 12 13 13 13 14 14 14 14 13 13 12 11 9 7 5 2 0 5 14 15 15 15 15 14 14 15 15 14
21 20 20 20 19 17 16 15 15 14 14 13 12 12 12 13 13 13 13 14 13 13 13 12 12 11 10 7 5 2 1 3 10 15 16 16 15 15 14 14 14 14 14
21 19 18 18 17 17 16 15 14 14 13 12 12 12 12 13 13 13 13 13 13 12 12 11 11 10 8 6 3 1 2 4 5 14 16 14 15 14 14 13 13 13 13
19 19 17 17 17 16 15 15 14 14 13 13 12 12 13 13 13 13 13 12 12 11 11 10 10 9 7 5 2 1 3 4 7 15 15 14 15 14 13 13 12 12 12
16 15 16 17 15 16 16 16 15 14 13 13 12 12 13 12 13 12 13 12 11 10 9 9 8 8 6 5 3 3 4 1 11 14 14 16 15 13 12 12 11 11 11
16 14 12 15 14 14 14 15 13 13 13 12 12 13 11 10 11 13 15 12 11 10 9 8 7 7 6 5 5 5 4 4 10 13 14 16 14 13 12 11 11 10 10
14 12 13 14 11 10 10 11 10 10 12 11 12 11 9 10 11 12 11 10 10 10 8 8 8 6 5 3 4 3 1 3 9 13 14 15 14 12 11 10 10 10 10
13 12 12 11 8 8 8 7 7 7 8 7 10 10 8 5 6 7 7 9 9 7 6 6 5 5 3 2 3 3 3 4 10 13 14 14 13 12 11 10 9 9 9
12 11 10 10 8 7 6 4 6 5 7 9 10 8 8 5 4 5 4 5 7 7 6 4 3 4 3 2 2 3 3 5 9 12 12 14 13 11 10 10 9 8 8
12 11 10 10 9 7 6 3 2 5 6 8 9 9 8 7 5 4 4 3 3 5 5 4 4 3 2 1 2 2 3 4 8 12 13 12 12 11 10 9 9 8 8
12 12 11 10 10 8 7 6 4 4 7 6 7 10 8 7 8 4 3 3 4 6 5 4 4 4 3 3 3 2 3 4 6 9 13 13 12 11 11 10 9 9 9
12 12 11 12 12 10 7 6 4 4 5 5 8 10 8 7 9 5 3 4 5 6 5 3 2 2 2 2 2 2 3 3 5 6 10 13 14 12 12 12 12 11 10
12 12 11 10 12 10 8 5 3 2 3 4 7 8 9 8 8 5 2 3 5 3 3 4 3 2 2 1 2 3 4 4 3 6 6 10 12 14 14 14 14 13 12
11 11 12 10 11 10 8 5 4 3 3 4 5 7 9 8 8 5 4 4 4 3 3 3 3 2 1 2 3 3 3 4 4 3 5 8 10 12 15 15 14 13 14
11 12 12 11 11 9 8 8 6 5 5 4 4 8 9 8 8 5 2 4 2 2 3 4 3 4 3 2 1 1 2 4 5 5 4 4 7 10 12 16 15 14 13
11 12 12 11 12 11 8 7 5 5 4 4 4 6 9 8 7 7 4 4 4 3 3 2 2 2 3 3 2 1 1 1 2 5 4 5 5 6 8 13 14 14 12
12 13 12 11 11 11 10 7 5 4 3 4 4 5 6 7 7 5 5 3 3 4 4 4 4 4 2 2 2 2 1 1 2 2 4 4 4 4 4 8 12 14 13
12 12 11 11 11 10 9 9 9 7 6 6 5 5 6 6 7 7 6 4 3 3 4 5 5 3 3 3 2 1 2 1 1 1 2 3 6 5 5 4 6 10 12
11 11 11 11 11 10 10 9 9 8 6 5 5 6 7 6 6 7 6 5 5 4 4 3 3 3 2 3 2 2 2 2 3 2 2 2 3 3 4 3 2 6 9
10 10 10 10 10 11 10 9 9 9 8 7 6 6 6 5 5 6 7 6 5 5 4 4 3 4 2 1 2 2 1 1 2 1 2 2 3 3 4 3 3 4 7
Wind_Direction
127 129 129 127 126 124 121 120 118 115 112 107 103 99 96 94 92 92 92 94 97 100 101 99 99 99 98 95 92 91 93 94 96 96 95 95 96 99 103 106 103 100 103
126 130 130 128 126 124 122 122 121 117 116 112 107 103 100 98 97 96 95 96 98 99 100 101 102 101 102 101 100 99 101 103 105 104 101 97 96 94 95 98 100 105 104
126 131 131 129 126 124 123 122 122 120 117 114 110 106 104 101 100 99 98 97 98 99 100 101 103 104 105 104 106 107 111 116 118 118 111 103 98 95 96 99 104 107 106
129 136 133 131 128 126 124 123 122 121 120 117 113 109 107 104 102 101 100 99 99 100 101 101 102 104 106 107 110 115 121 127 130 131 114 108 104 102 103 104 108 109 107
131 130 131 135 132 130 128 127 125 124 122 119 116 112 108 106 104 102 101 101 100 100 101 100 101 104 106 108 113 120 128 132 136 113 101 99 100 108 107 108 110 110 110
130 130 135 136 135 134 132 131 130 127 125 122 119 115 111 108 105 104 104 103 103 102 100 100 100 103 107 109 113 119 126 138 136 110 106 105 107 110 111 112 112 112 112
134 132 138 138 137 137 136 135 134 131 128 125 121 117 114 111 108 107 108 106 105 105 103 102 102 103 106 109 112 114 114 9 127 111 106 104 109 113 113 112 113 115 114
132 133 137 140 140 140 139 138 137 135 131 129 125 121 117 114 112 112 110 109 109 108 106 104 104 105 107 109 110 106 11 357 105 111 110 110 115 114 112 112 114 116 115
129 134 142 143 143 143 143 143 142 138 135 133 131 128 124 122 120 118 116 114 113 110 108 107 107 110 112 114 115 74 355 359 107 115 112 113 118 117 115 115 115 116 117
134 141 146 149 147 150 149 149 146 143 141 140 139 138 135 133 131 129 125 121 120 118 115 114 114 119 125 132 150 263 320 327 119 105 110 120 123 122 121 118 118 119 121
138 144 154 149 152 157 154 152 151 149 150 149 151 152 151 153 145 147 127 129 129 128 127 128 129 135 144 159 194 255 287 300 100 102 111 126 129 126 125 123 122 122 124
146 152 153 147 158 163 154 152 160 162 160 171 161 167 178 162 148 134 135 140 141 142 145 149 153 164 180 176 190 227 258 156 114 113 122 132 133 132 130 129 129 128 130
152 153 152 152 161 156 143 159 169 165 163 178 163 167 166 147 136 134 147 151 158 165 168 158 177 195 206 182 164 191 194 110 111 115 130 138 138 139 138 138 138 137 138
156 157 153 146 152 142 147 161 160 159 164 159 155 174 161 155 144 147 153 164 170 176 165 167 173 167 185 178 153 126 107 84 105 116 139 145 143 145 147 148 147 146 148
156 158 148 142 140 128 126 157 167 157 161 153 159 184 166 159 146 143 145 162 170 162 165 174 165 144 157 150 120 106 86 87 114 119 139 152 150 152 154 155 155 157 158
157 154 147 143 141 135 137 174 164 158 148 151 163 174 181 161 140 144 151 165 165 154 155 156 144 141 163 136 118 134 123 111 113 126 144 153 156 161 163 165 167 168 168
155 152 151 154 155 157 164 190 177 174 159 162 158 163 181 164 144 153 154 172 166 146 145 154 150 150 172 166 162 156 138 142 142 142 150 156 163 171 175 176 178 179 178
157 156 161 168 165 167 175 195 186 187 158 157 152 161 176 160 153 166 173 166 156 159 166 146 179 170 155 162 164 168 144 143 154 165 163 165 168 174 181 186 186 188 190
160 160 164 163 160 168 176 187 196 183 153 159 156 159 167 170 162 181 172 137 169 172 165 177 158 151 151 161 182 177 170 166 168 192 171 169 171 171 176 188 192 195 199
162 163 166 165 162 167 172 181 198 186 170 171 159 154 160 173 172 184 169 163 189 164 149 122 123 133 167 211 232 182 185 172 186 183 187 178 175 180 180 181 188 201 208
168 169 170 173 168 169 176 180 185 186 185 180 173 162 167 179 174 189 191 157 186 159 157 158 160 175 210 213 223 223 211 194 188 183 201 179 183 192 181 173 184 194 201
172 173 174 176 173 176 181 180 180 179 188 188 184 160 171 173 177 186 185 181 174 155 172 186 168 185 224 206 200 199 254 253 228 203 187 198 189 184 181 184 191 189 192
173 175 178 178 178 182 177 172 177 172 186 192 174 169 177 175 185 188 168 194 166 179 180 187 192 199 234 238 204 181 182 211 237 233 201 192 181 183 196 195 190 190 193
174 173 172 175 178 181 179 180 181 188 193 192 179 175 182 184 186 183 179 186 183 194 167 196 194 203 217 252 235 201 199 167 193 207 252 201 188 190 201 204 194 187 190
172 171 172 171 176 180 187 188 192 195 193 187 178 179 185 186 188 186 181 181 187 202 189 197 162 184 218 241 250 229 229 217 233 201 224 217 201 191 192 199 164 173 185
167 170 170 172 178 181 188 192 195 195 190 186 185 184 188 187 193 195 187 180 189 201 185 175 180 198 219 278 297 282 234 233 250 236 210 201 200 204 182 182 180 166 175
Height
1507 1508 1511 1513 1516 1518 1520 1522 1523 1525 1527 1528 1529 1530 1531 1532 1533 1534 1535 1537 1538 1539 1540 1541 1542 1543 1545 1546 1547 1548 1549 1550 1551 1552 1553 1555 1556 1557 1558 1559 1560 1561 1562
1505 1509 1512 1514 1517 1519 1521 1523 1525 1527 1528 1530 1531 1532 1533 1534 1535 1536 1537 1538 1539 1540 1542 1543 1543 1545 1546 1547 1548 1550 1551 1552 1553 1554 1555 1556 1558 1559 1560 1562 1563 1564 1565
1505 1509 1512 1515 1518 1520 1522 1525 1527 1528 1530 1532 1533 1534 1535 1536 1537 1538 1539 1540 1541 1542 1543 1544 1545 1546 1547 1549 1550 1551 1552 1554 1555 1556 1557 1559 1560 1561 1562 1564 1565 1566 1568
1506 1510 1513 1516 1519 1521 1524 1526 1528 1530 1532 1533 1534 1536 1537 1538 1539 1540 1541 1542 1543 1544 1545 1546 1546 1547 1549 1550 1552 1553 1555 1556 1557 1558 1560 1561 1562 1563 1565 1566 1567 1569 1570
1508 1511 1514 1517 1520 1522 1525 1527 1529 1531 1533 1534 1536 1537 1539 1540 1541 1542 1543 1544 1545 1546 1547 1548 1548 1549 1551 1552 1554 1555 1557 1558 1559 1561 1562 1563 1564 1566 1567 1568 1569 1571 1572
1509 1512 1515 1518 1521 1523 1526 1528 1530 1532 1534 1536 1538 1539 1540 1542 1543 1544 1545 1546 1547 1548 1549 1550 1551 1552 1553 1554 1556 1557 1559 1560 1561 1563 1564 1565 1566 1568 1569 1570 1572 1573 1574
1511 1512 1516 1519 1522 1524 1527 1529 1531 1534 1536 1538 1539 1541 1542 1543 1544 1545 1546 1548 1549 1550 1551 1552 1553 1554 1555 1557 1558 1559 1561 1562 1564 1565 1566 1567 1568 1569 1571 1572 1574 1575 1576
1511 1513 1516 1520 1523 1525 1528 1531 1533 1535 1537 1539 1541 1542 1544 1545 1546 1547 1549 1550 1551 1552 1553 1554 1555 1556 1557 1559 1560 1562 1563 1564 1566 1567 1567 1569 1570 1571 1572 1574 1575 1577 1578
1512 1514 1517 1520 1523 1526 1529 1532 1534 1536 1538 1540 1542 1544 1545 1547 1548 1549 1551 1552 1553 1554 1555 1556 1557 1558 1559 1561 1562 1563 1565 1566 1568 1568 1569 1570 1571 1573 1574 1575 1577 1578 1579
1513 1515 1518 1521 1524 1527 1530 1532 1535 1537 1539 1541 1543 1545 1547 1548 1550 1551 1552 1554 1555 1556 1557 1558 1559 1560 1561 1563 1564 1566 1567 1568 1569 1570 1570 1572 1573 1574 1575 1577 1578 1579 1581
1514 1517 1520 1522 1524 1528 1530 1533 1535 1538 1540 1542 1544 1546 1548 1549 1551 1553 1554 1556 1557 1558 1559 1560 1561 1562 1564 1565 1566 1568 1569 1569 1570 1571 1572 1573 1574 1575 1576 1578 1579 1580 1582
1515 1518 1521 1523 1526 1530 1532 1533 1536 1539 1541 1543 1545 1547 1549 1551 1553 1554 1556 1557 1558 1559 1561 1562 1563 1564 1565 1567 1569 1569 1570 1571 1571 1572 1573 1574 1575 1576 1577 1579 1580 1581 1583
1515 1518 1521 1523 1526 1530 1533 1534 1537 1540 1542 1544 1546 1549 1550 1552 1554 1555 1556 1558 1559 1561 1562 1564 1564 1565 1567 1569 1570 1571 1571 1572 1572 1572 1573 1575 1576 1577 1578 1579 1581 1582 1583
1514 1517 1520 1523 1526 1530 1532 1535 1537 1540 1542 1545 1546 1549 1551 1553 1555 1556 1557 1558 1560 1562 1563 1565 1565 1566 1568 1570 1571 1572 1572 1573 1573 1573 1574 1575 1576 1577 1578 1580 1581 1582 1583
1512 1516 1519 1521 1525 1528 1531 1535 1538 1540 1542 1544 1546 1549 1552 1554 1555 1556 1558 1559 1561 1562 1564 1565 1566 1567 1569 1570 1572 1572 1573 1574 1573 1573 1574 1576 1577 1578 1579 1580 1581 1582 1584
1510 1514 1517 1519 1522 1526 1530 1534 1537 1540 1542 1544 1546 1548 1551 1554 1555 1557 1558 1559 1561 1562 1564 1565 1567 1568 1569 1571 1572 1572 1573 1574 1574 1574 1575 1576 1577 1578 1579 1580 1581 1582 1584
1509 1512 1515 1518 1520 1524 1527 1532 1536 1539 1542 1544 1546 1548 1551 1553 1554 1556 1558 1559 1561 1562 1564 1565 1567 1568 1569 1570 1571 1572 1573 1574 1575 1575 1575 1576 1577 1578 1579 1580 1581 1582 1583
1507 1510 1513 1516 1518 1521 1525 1530 1534 1538 1541 1543 1545 1547 1550 1552 1554 1556 1558 1559 1561 1562 1564 1565 1567 1568 1569 1570 1571 1572 1573 1573 1574 1575 1576 1576 1577 1578 1579 1580 1581 1582 1583
1505 1508 1511 1515 1517 1520 1524 1528 1533 1537 1539 1542 1544 1546 1548 1551 1553 1555 1557 1559 1560 1562 1564 1565 1566 1567 1568 1569 1570 1571 1572 1573 1574 1575 1576 1576 1577 1577 1578 1579 1580 1581 1582
1503 1506 1509 1513 1515 1519 1523 1527 1531 1534 1537 1540 1543 1544 1547 1549 1551 1554 1556 1558 1560 1561 1563 1564 1565 1567 1568 1569 1570 1571 1571 1572 1573 1574 1575 1576 1576 1577 1578 1578 1579 1580 1582
1501 1503 1506 1510 1513 1517 1521 1524 1528 1532 1535 1538 1540 1542 1545 1547 1550 1552 1555 1556 1558 1560 1561 1563 1564 1566 1567 1568 1569 1570 1571 1571 1572 1573 1574 1575 1575 1576 1577 1578 1578 1579 1580
1498 1501 1504 1508 1511 1515 1518 1522 1526 1530 1533 1535 1538 1540 1543 1545 1548 1551 1553 1554 1556 1558 1560 1561 1563 1565 1566 1567 1568 1569 1570 1571 1571 1572 1572 1573 1574 1575 1576 1576 1577 1578 1579
1497 1499 1502 1505 1509 1513 1517 1521 1525 1528 1530 1533 1536 1538 1541 1543 1546 1549 1551 1553 1555 1556 1558 1559 1561 1563 1564 1566 1567 1568 1569 1569 1569 1571 1571 1572 1572 1574 1575 1575 1575 1576 1577
1496 1498 1501 1504 1507 1511 1515 1518 1521 1524 1527 1530 1533 1536 1539 1541 1544 1546 1549 1550 1552 1554 1556 1558 1559 1561 1563 1564 1566 1567 1568 1568 1569 1569 1570 1570 1571 1572 1573 1574 1574 1575 1575
1495 1497 1500 1502 1505 1508 1512 1515 1518 1521 1524 1527 1530 1533 1536 1539 1541 1544 1546 1548 1550 1552 1554 1556 1558 1559 1561 1563 1564 1565 1566 1566 1567 1568 1568 1569 1570 1570 1571 1572 1573 1573 1574
1494 1497 1499 1501 1503 1506 1509 1512 1515 1518 1521 1524 1527 1530 1533 1536 1538 1541 1543 1545 1547 1550 1551 1553 1555 1557 1559 1560 1561 1563 1564 1565 1565 1566 1567 1567 1568 1569 1569 1570 1571 1572 1572